DELTA 1 DEB, 42556

Orbit data source: Space-Track

DELTA 1 DEB, 42556 is space debris in SSO originally from a launch on Sun, 23 Jul 1972 UTC launched from the Air Force Western Test Range (AFWTR). Debris objects in space refer to the collection of defunct objects orbiting the Earth. Examples of debris include non-operational satellites, rocket bodies, and fragments generated from explosions, collisions, or faulty payload assembly.

Loading next visibility...
Identifier
42556, 1972-058JP
Orbit
SSO
Country
Flag of USUS
Related business
Manufacturer
Unknown
Mission
Spacecraft
Bus & Motor
Unknown
Mass
Unknown
Launch date (UTC)
1972-07-23 (53 years ago)
Launch vehicle
Unknown
Launch site
Air Force Western Test Range (AFWTR)
Object type
Payload
Rocket body
Debris
Shape & HBR
Unknown shape, 0.1 m
Radar Cross Section
Small (<0.1 m²)

Expand to show TLE details & history
Last TLE update: 2 weeks ago

TLE from 2 weeks ago
0 DELTA 1 DEB
1 42556U 72058JP  25336.92734228  .00003568  00000-0  11566-2 0  9993
2 42556  98.4699  44.1233 0270985 290.3728  66.8532 14.20749383619432
Epoch: 2025-12-02T22:15Z
TLE epoch observation values (Epoch: 2025-12-02T22:15:22.372Z)
Latitude
-0.00006°
Longitude
-1.72538°
Altitude
753.568 km
Speed
7.515 km/s
True Right ascension
02h 56m 29s
True Declination
0° 00' 00"
Sunlit
Object was in full shadow at epoch
Visualization orbit readout
Latitude
Unknown
Longitude
Unknown
Altitude
Unknown
Speed
Unknown
Apparent Right ascension
Unknown
Apparent Declination
Unknown
Sunlit
N/A
Visualization observer readout
Local Sidereal Time
08:24:23
Azimuth
Unknown
Elevation
Unknown
Doppler factor
Unknown
Orbital elements
Apogee altitude
1,015.02 km
Perigee altitude
624.905 km
Semi-major axis
7,198.1 km
Eccentricity
0.0271
Inclination
98.4699°
RAAN
44.1233°
Arg. of periapsis
290.3728°
True anomaly
69.74577°
Mean anomaly
66.8532°
Eccentric anomaly
68.29576°
Mean motion
3.55399 °/min
Orbital period
101.29 mins
BSTAR
0.0011566
Loading maneuver chart data...
Computing Atmospheric mass density...
Loading historical data...
Loading historical data...
Loading historical data...
Loading historical data...
Loading historical data...
Loading historical data...
Loading historical data...

Documentation

Showing up to 5 results
|